FW9607 Weather Reports


Display with metric or nautical units.
time (UTC)temp
F
wind
direction
speed
MPH
gust
MPH
rain 1hr
in
rain 24hr
in
rain mn
in
humidity
%
barometer
mb
20260509105018 72 128 5.0 7.0 0.24 0.37 0.37 96 1009.1
20260509104524 73 114 5.0 7.0 0.26 0.36 0.36 96 1009.1
20260509104020 73 140 4.0 7.0 0.26 0.35 0.35 96 1009.4
20260509103021 72 145 4.0 6.0 0.27 0.30 0.30 96 1009.5
20260509101510 72 145 2.0 4.0 0.22 0.22 0.22 96 1009.9
20260509101006 72 148 2.0 3.0 0.20 0.20 0.20 96 1009.8
20260509095959 73 146 3.0 6.0 0.15 0.16 0.16 96 1009.9
20260509095450 75 164 4.0 7.0 0.13 0.14 0.14 96 1010.1
20260509094949 76 161 4.0 7.0 0.12 0.13 0.13 97 1010.1
20260509094449 76 161 4.0 7.0 0.10 0.11 0.11 97 1010.0
20260509093948 76 109 3.0 5.0 0.08 0.08 0.08 97 1010.1
20260509093452 76 162 3.0 5.0 0.06 0.07 0.07 96 1010.1
20260509092947 76 190 3.0 5.0 0.03 0.03 0.03 96 1009.9
20260509091947 77 167 3.0 4.0 0.01 0.01 0.01 94 1008.9
20260509091452 77 167 3.0 4.0 0.00 0.00 0.00 94 1008.0
20260509090447 77 137 3.0 5.0 0.00 0.00 0.00 94 1007.2
20260509085946 77 129 3.0 4.0 0.00 0.00 0.00 94 1006.8
20260509084937 76 147 4.0 6.0 0.00 0.00 0.00 95 1006.9
20260509084437 76 162 4.0 6.0 0.00 0.00 0.00 95 1006.5
20260509083937 77 158 4.0 6.0 0.00 0.00 0.00 95 1006.1
20260509083436 77 96 3.0 6.0 0.00 0.00 0.00 95 1006.2
20260509082937 77 93 3.0 6.0 0.00 0.00 0.00 95 1006.2
20260509082434 77 175 3.0 4.0 0.00 0.00 0.00 95 1006.0
20260509081934 77 127 2.0 4.0 0.00 0.00 0.00 94 1006.4
20260509081435 77 130 2.0 3.0 0.00 0.00 0.00 94 1006.6
20260509080934 77 110 2.0 5.0 0.00 0.00 0.00 94 1007.0
20260509080428 77 168 3.0 5.0 0.00 0.00 0.00 94 1007.0
20260509075910 77 114 3.0 5.0 0.00 0.00 0.00 94 1006.9
20260509075409 77 167 3.0 5.0 0.00 0.00 0.00 94 1007.1
20260509074406 77 129 3.0 4.0 0.00 0.00 0.00 94 1007.2
20260509073906 77 120 2.0 4.0 0.00 0.00 0.00 94 1007.3
20260509073406 77 84 3.0 4.0 0.00 0.00 0.00 94 1007.5
20260509072906 77 135 3.0 4.0 0.00 0.00 0.00 94 1007.3
20260509072406 77 135 2.0 4.0 0.00 0.00 0.00 94 1007.5
20260509071906 77 86 2.0 4.0 0.00 0.00 0.00 93 1007.8
20260509071406 78 73 2.0 2.0 0.00 0.00 0.00 93 1007.8
20260509070413 77 112 2.0 3.0 0.00 0.00 0.00 94 1008.1
20260509065906 77 124 2.0 3.0 0.00 0.00 0.00 94 1008.1
20260509065406 77 158 2.0 3.0 0.00 0.00 0.00 94 1008.1
20260509064906 77 88 2.0 4.0 0.00 0.00 0.00 94 1008.1
20260509064351 77 133 2.0 4.0 0.00 0.00 0.00 94 1008.0
20260509063351 77 80 3.0 5.0 0.00 0.00 0.00 93 1007.6
20260509062852 77 110 2.0 5.0 0.00 0.00 0.00 93 1007.6
20260509062352 77 87 2.0 4.0 0.00 0.00 0.00 93 1008.0
20260509061852 77 89 2.0 4.0 0.00 0.00 0.00 93 1007.9
20260509061352 77 155 2.0 4.0 0.00 0.00 0.00 93 1007.7
20260509060852 77 131 2.0 4.0 0.00 0.00 0.00 93 1007.4
20260509060353 77 40 2.0 3.0 0.00 0.00 0.00 93 1007.6
20260509055852 77 53 2.0 4.0 0.00 0.00 0.00 92 1007.6
20260509055353 78 243 2.0 4.0 0.00 0.00 0.00 92 1007.6
20260509054853 78 101 3.0 5.0 0.00 0.00 0.00 91 1007.4
20260509053839 78 70 2.0 6.0 0.00 0.00 0.00 91 1007.3
20260509053340 78 42 3.0 8.0 0.00 0.00 0.00 91 1007.4
20260509051840 78 164 2.0 6.0 0.00 0.00 0.00 90 1008.1
20260509051340 78 87 2.0 6.0 0.00 0.00 0.00 90 1008.0
20260509050840 79 113 2.0 6.0 0.00 0.00 0.00 90 1007.6
20260509050340 79 136 2.0 5.0 0.00 0.00 0.00 89 1007.7
20260509045840 79 156 1.0 4.0 0.00 0.00 0.00 89 1008.1
20260509045339 79 146 1.0 2.0 0.00 0.00 0.00 89 1008.3
20260509044840 79 254 1.0 2.0 0.00 0.00 0.00 89 1008.3
20260509043337 79 115 2.0 6.0 0.00 0.00 0.00 89 1007.8
20260509042837 79 128 2.0 6.0 0.00 0.00 0.00 88 1007.8
20260509042337 79 120 2.0 4.0 0.00 0.00 0.00 88 1007.6
20260509041837 79 148 2.0 5.0 0.00 0.00 0.00 88 1007.7
20260509041338 79 94 2.0 5.0 0.00 0.00 0.00 88 1007.7
20260509040837 79 122 1.0 3.0 0.00 0.00 0.00 89 1007.8
20260509035838 79 143 2.0 4.0 0.00 0.00 0.00 89 1007.5
20260509034837 79 104 2.0 5.0 0.00 0.00 0.00 89 1007.1
20260509034338 79 113 2.0 5.0 0.00 0.00 0.00 89 1007.2
20260509033835 79 99 2.0 4.0 0.00 0.00 0.00 89 1007.3
20260509033335 79 101 2.0 4.0 0.00 0.00 0.00 89 1007.4
20260509032835 79 146 1.0 3.0 0.00 0.00 0.00 89 1007.4
20260509032335 79 174 1.0 4.0 0.00 0.00 0.00 89 1007.4
20260509031836 79 173 1.0 4.0 0.00 0.00 0.00 89 1007.2
20260509031337 79 163 1.0 2.0 0.00 0.00 0.00 90 1007.3
20260509030837 79 162 1.0 3.0 0.00 0.00 0.00 90 1007.3
20260509025837 80 152 1.0 2.0 0.00 0.00 0.00 90 1007.0
20260509025337 80 163 1.0 2.0 0.00 0.00 0.00 89 1006.9
20260509024837 80 157 1.0 3.0 0.00 0.00 0.00 89 1006.8
20260509024337 80 143 1.0 3.0 0.00 0.00 0.00 89 1006.7
20260509023837 80 164 1.0 3.0 0.00 0.00 0.00 89 1006.6
20260509023337 80 107 1.0 3.0 0.00 0.00 0.00 89 1006.5
20260509022833 80 144 1.0 3.0 0.00 0.00 0.00 89 1006.4
20260509022331 80 121 1.0 3.0 0.00 0.00 0.00 89 1006.4
20260509021828 80 137 1.0 3.0 0.00 0.00 0.00 89 1006.3
20260509021327 80 125 1.0 3.0 0.00 0.00 0.00 89 1006.2
20260509020827 80 159 2.0 5.0 0.00 0.00 0.00 89 1006.3
20260509020327 80 106 1.0 5.0 0.00 0.00 0.00 89 1006.2
20260509015825 80 171 2.0 4.0 0.00 0.00 0.00 89 1006.1
20260509014824 80 108 2.0 4.0 0.00 0.00 0.00 89 1005.9
20260509014324 80 89 2.0 4.0 0.00 0.00 0.00 89 1005.7
20260509013824 81 158 2.0 6.0 0.00 0.00 0.00 89 1005.8
20260509013325 81 141 2.0 6.0 0.00 0.00 0.00 89 1005.5
20260509012824 81 114 2.0 4.0 0.00 0.00 0.00 88 1005.5
20260509012325 81 137 1.0 4.0 0.00 0.00 0.00 88 1005.6
20260509011825 81 110 2.0 7.0 0.00 0.00 0.00 88 1005.5
20260509011322 81 142 2.0 7.0 0.00 0.00 0.00 88 1005.5
20260509010822 81 135 2.0 5.0 0.00 0.00 0.00 88 1005.4
20260509010322 81 83 2.0 7.0 0.00 0.00 0.00 88 1005.2
20260509005822 81 125 2.0 7.0 0.00 0.00 0.00 88 1005.1
20260509005322 81 158 2.0 6.0 0.00 0.00 0.00 88 1005.0
20260509004823 81 183 2.0 6.0 0.00 0.00 0.00 88 1005.0
20260509004322 81 132 3.0 6.0 0.00 0.00 0.00 88 1004.9
20260509003820 82 102 2.0 7.0 0.00 0.00 0.00 87 1005.0
20260509003320 82 116 3.0 7.0 0.00 0.00 0.00 87 1005.0
20260509002819 82 77 3.0 10.0 0.00 0.00 0.00 87 1004.9
20260509001820 82 115 3.0 6.0 0.00 0.00 0.00 86 1005.1
20260509000819 82 86 3.0 6.0 0.00 0.00 0.00 86 1005.2
20260509000320 83 131 2.0 6.0 0.00 0.00 0.00 85 1005.0
20260508235820 83 106 2.0 6.0 0.00 0.00 0.00 84 1005.1
20260508235320 83 117 2.0 7.0 0.00 0.00 0.00 84 1005.2
20260508234817 83 65 3.0 7.0 0.00 0.00 0.00 84 1005.1
20260508234318 83 149 3.0 7.0 0.00 0.00 0.00 84 1005.1
20260508233817 83 94 3.0 8.0 0.00 0.00 0.00 84 1005.1
20260508233318 84 122 3.0 8.0 0.00 0.00 0.00 83 1005.0
20260508232817 84 137 3.0 8.0 0.00 0.00 0.00 83 1005.0
20260508232314 84 103 3.0 8.0 0.00 0.00 0.00 82 1005.0
20260508231814 84 136 2.0 6.0 0.00 0.00 0.00 81 1005.2
20260508231315 84 85 2.0 8.0 0.00 0.00 0.00 81 1005.2
20260508230314 85 136 2.0 7.0 0.00 0.00 0.00 80 1005.1
20260508225315 85 127 4.0 7.0 0.00 0.00 0.00 79 1005.2
20260508223309 86 144 3.0 8.0 0.00 0.00 0.00 77 1005.2
20260508222309 86 147 3.0 8.0 0.00 0.00 0.00 77 1005.3
20260508221809 86 150 3.0 8.0 0.00 0.00 0.00 76 1005.3
20260508221309 86 165 3.0 10.0 0.00 0.00 0.00 77 1005.4
20260508220309 87 86 3.0 9.0 0.00 0.00 0.00 75 1005.5
20260508215810 87 105 3.0 7.0 0.00 0.00 0.00 74 1005.4
20260508215310 87 95 3.0 7.0 0.00 0.00 0.00 74 1005.6
20260508214809 87 130 3.0 8.0 0.00 0.00 0.00 74 1005.6
20260508214310 87 98 2.0 8.0 0.00 0.00 0.00 73 1005.7
20260508213810 88 123 2.0 6.0 0.00 0.00 0.00 73 1005.8
20260508213308 88 125 2.0 6.0 0.00 0.00 0.00 72 1005.8
20260508212308 88 149 2.0 6.0 0.00 0.00 0.00 72 1005.9
20260508211811 88 169 2.0 6.0 0.00 0.00 0.00 72 1006.0
20260508211308 88 107 2.0 6.0 0.00 0.00 0.00 72 1006.1
20260508210813 88 89 2.0 6.0 0.00 0.00 0.00 72 1006.2
20260508205811 88 125 2.0 7.0 0.00 0.00 0.00 71 1006.4
20260508205051 88 181 2.0 6.0 0.00 0.00 0.00 71 1006.5
20260508204557 88 135 2.0 5.0 0.00 0.00 0.00 71 1006.5
20260508204042 88 197 2.0 6.0 0.00 0.00 0.00 70 1006.5
20260508203538 89 156 2.0 6.0 0.00 0.00 0.00 70 1006.7
20260508203042 89 125 2.0 7.0 0.00 0.00 0.00 68 1006.7
20260508202538 89 0 2.0 7.0 0.00 0.00 0.00 69 1006.8
20260508202040 88 122 2.0 5.0 0.00 0.00 0.00 69 1006.9
20260508201455 88 193 2.0 5.0 0.00 0.00 0.00 69 1006.8
20260508200951 87 145 2.0 7.0 0.00 0.00 0.00 70 1006.9
20260508200448 88 161 2.0 7.0 0.00 0.00 0.00 70 1006.9
20260508195949 88 177 2.0 5.0 0.00 0.00 0.00 69 1007.0
20260508195449 88 135 2.0 5.0 0.00 0.00 0.00 69 1007.0
20260508194946 88 89 2.0 5.0 0.00 0.00 0.00 68 1007.1
20260508194446 88 134 2.0 5.0 0.00 0.00 0.00 69 1007.2
20260508193946 87 142 2.0 6.0 0.00 0.00 0.00 70 1007.1
20260508193446 87 13 2.0 6.0 0.00 0.00 0.00 71 1007.2
20260508192946 87 64 2.0 6.0 0.00 0.00 0.00 71 1007.2
20260508192446 88 55 3.0 8.0 0.00 0.00 0.00 71 1007.3
20260508191446 89 143 2.0 6.0 0.00 0.00 0.00 69 1007.5
20260508190946 89 209 2.0 6.0 0.00 0.00 0.00 69 1007.6
20260508190447 89 115 2.0 6.0 0.00 0.00 0.00 67 1007.6
20260508185947 89 125 2.0 6.0 0.00 0.00 0.00 68 1007.7
20260508184946 87 171 2.0 5.0 0.00 0.00 0.00 72 1007.8
20260508184443 87 109 2.0 7.0 0.00 0.00 0.00 72 1007.9
20260508183945 87 114 2.0 7.0 0.00 0.00 0.00 74 1008.0
20260508183441 86 73 2.0 7.0 0.00 0.00 0.00 75 1008.2
20260508182941 86 182 2.0 7.0 0.00 0.00 0.00 75 1008.3
20260508182441 86 124 3.0 8.0 0.00 0.00 0.00 74 1008.3
20260508181941 86 138 3.0 8.0 0.00 0.00 0.00 74 1008.4
20260508180941 85 186 2.0 5.0 0.00 0.00 0.00 76 1008.6
20260508180441 85 138 3.0 6.0 0.00 0.00 0.00 76 1008.7
20260508175941 84 17 2.0 6.0 0.00 0.00 0.00 79 1008.8
20260508174941 83 203 3.0 7.0 0.00 0.00 0.00 80 1009.0
20260508174450 83 124 3.0 7.0 0.00 0.00 0.00 80 1009.1
20260508173939 83 147 3.0 7.0 0.00 0.00 0.00 81 1009.1
20260508173438 83 135 2.0 6.0 0.00 0.00 0.00 81 1009.3
20260508172936 83 99 2.0 7.0 0.00 0.00 0.00 80 1009.3
20260508171936 83 104 2.0 6.0 0.00 0.00 0.00 80 1009.3
20260508171436 82 126 2.0 6.0 0.00 0.00 0.00 80 1009.5
20260508170935 82 149 2.0 6.0 0.00 0.01 0.00 81 1009.6
20260508170436 82 90 2.0 6.0 0.00 0.01 0.00 82 1009.6
20260508165936 82 110 2.0 6.0 0.00 0.01 0.00 82 1009.7
20260508165436 81 81 2.0 7.0 0.00 0.01 0.00 83 1009.7
20260508164936 81 64 2.0 7.0 0.00 0.01 0.00 83 1009.8
20260508164435 81 201 2.0 7.0 0.00 0.01 0.00 83 1009.8
20260508163936 80 161 3.0 8.0 0.00 0.01 0.00 85 1009.9
20260508163436 80 93 3.0 8.0 0.00 0.01 0.00 85 1009.8
20260508162933 80 108 2.0 6.0 0.00 0.01 0.00 85 1010.0
20260508162434 79 143 3.0 7.0 0.00 0.01 0.00 85 1010.0
20260508161930 79 56 3.0 7.0 0.00 0.01 0.00 85 1010.1
20260508161430 79 97 3.0 6.0 0.00 0.01 0.00 85 1010.1
20260508160431 78 150 2.0 6.0 0.00 0.01 0.00 85 1010.3
20260508155931 78 88 2.0 6.0 0.00 0.01 0.00 85 1010.1
20260508155431 77 121 2.0 6.0 0.00 0.01 0.00 86 1010.3
20260508154931 77 18 3.0 6.0 0.00 0.01 0.00 86 1010.4
20260508154431 76 79 4.0 6.0 0.00 0.01 0.00 88 1010.3
20260508153931 75 35 4.0 7.0 0.00 0.01 0.00 89 1010.4
20260508153431 74 54 4.0 7.0 0.00 0.01 0.00 89 1010.5
20260508152931 74 41 4.0 7.0 0.00 0.01 0.00 89 1010.5
20260508152431 74 56 4.0 7.0 0.00 0.01 0.00 89 1010.4
20260508151932 74 38 3.0 6.0 0.00 0.01 0.00 89 1010.5
20260508151431 74 78 3.0 5.0 0.00 0.01 0.00 90 1010.4
20260508150416 73 79 4.0 6.0 0.00 0.01 0.00 92 1010.6
20260508145908 72 60 4.0 6.0 0.00 0.01 0.00 92 1010.6
20260508145401 72 43 3.0 7.0 0.00 0.01 0.00 92 1010.5
20260508144902 72 79 3.0 7.0 0.00 0.01 0.00 92 1010.6
20260508144403 71 44 2.0 6.0 0.00 0.01 0.00 93 1010.7
20260508143902 71 53 3.0 5.0 0.00 0.01 0.00 93 1010.7
20260508142402 70 26 2.0 4.0 0.00 0.01 0.00 94 1010.6
20260508141902 70 95 3.0 4.0 0.00 0.01 0.00 94 1010.9
20260508140403 69 105 2.0 6.0 0.00 0.01 0.00 95 1010.9
20260508135407 69 93 2.0 4.0 0.00 0.01 0.00 96 1011.2
20260508134905 69 112 1.0 3.0 0.00 0.01 0.00 96 1011.3
20260508134407 69 85 1.0 3.0 0.00 0.01 0.00 96 1011.4
20260508133903 69 45 1.0 2.0 0.00 0.01 0.00 96 1011.3
20260508133405 69 96 2.0 3.0 0.00 0.01 0.00 96 1011.3
20260508132902 68 89 2.0 4.0 0.00 0.01 0.00 96 1011.2
20260508131901 68 49 2.0 4.0 0.00 0.01 0.00 97 1011.2
20260508131404 68 346 2.0 4.0 0.00 0.01 0.00 97 1011.1
20260508130900 68 94 2.0 4.0 0.00 0.01 0.00 97 1010.9
20260508130404 68 133 2.0 4.0 0.00 0.01 0.00 97 1011.0
20260508125901 68 130 3.0 6.0 0.00 0.01 0.00 97 1011.0
20260508125354 68 92 3.0 6.0 0.00 0.01 0.00 98 1010.8
20260508124351 68 69 3.0 4.0 0.00 0.01 0.00 98 1010.8
20260508123848 68 311 2.0 4.0 0.00 0.01 0.00 98 1011.1
20260508123351 68 83 2.0 4.0 0.00 0.01 0.00 98 1011.0
20260508122848 69 2 2.0 5.0 0.00 0.01 0.00 98 1011.0
20260508122351 69 210 2.0 5.0 0.00 0.01 0.00 98 1010.9
20260508121848 69 128 3.0 5.0 0.00 0.01 0.00 99 1010.9
20260508121352 69 205 3.0 7.0 0.00 0.01 0.00 99 1011.0
20260508120848 70 217 3.0 7.0 0.00 0.01 0.00 99 1011.2
20260508120345 70 212 3.0 6.0 0.00 0.01 0.00 99 1011.0
20260508115835 70 284 2.0 5.0 0.00 0.01 0.00 99 1011.1
20260508115339 70 90 2.0 5.0 0.00 0.01 0.00 99 1011.0
20260508114339 70 198 2.0 4.0 0.00 0.01 0.00 99 1011.0
20260508113340 70 211 2.0 4.0 0.00 0.01 0.00 99 1010.8
20260508112836 70 234 2.0 4.0 0.00 0.01 0.00 99 1010.7
20260508112339 70 212 2.0 5.0 0.00 0.01 0.00 99 1010.6
20260508111836 70 218 2.0 5.0 0.00 0.01 0.00 99 1010.3
20260508110836 69 101 2.0 3.0 0.00 0.01 0.00 99 1010.2
20260508105325 69 119 2.0 4.0 0.00 0.01 0.00 99 1010.0